Home > Weather > Kumanovo > Past weeks

Flag for Macedonia, Republic of Past Weather in Kumanovo, Macedonia, Republic of — Yesterday and Last 2 Weeks

Now
75 °F

Scattered clouds.


Feels Like: 77 °F
Forecast: 63 / 90 °F
Wind: 6 mph from Northeast

Location: Skopje-Petrovec

Current Time: Jul 26, 2016 at 2:18:52 PM

Latest Report: Jul 26, 2016 at 2:00 PM


Visibility: N/A

Pressure: 29.98 "Hg

Humidity: 69%

Dew Point: 64 °F

Location of KumanovoLocation

Past Weather in Kumanovo — Graph

°F

Kumanovo Temperature Yesterday

Maximum temperature yesterday: 90 °F (at 12:30 PM)
Minimum temperature yesterday: 68 °F (at 2:30 AM)
Average temperature yesterday: 76 °F

High & Low Weather Summary for the Past Weeks

 TemperatureHumidityPressure
High99 °F (Jul 14, 3:30 PM)100% (Jul 26, 10:00 AM)30.09 "Hg (Jul 26, 10:00 AM)
Low57 °F (Jul 17, 4:30 AM)19% (Jul 12, 6:30 PM)29.71 "Hg (Jul 14, 4:00 PM)
Average76 °F58%29.95 "Hg
* Reported Jul 11 1:00 PM — Jul 26 1:00 PM, Kumanovo, Weather by CustomWeather, © 2016

Note: Actual official high and low records may vary slightly from our data, if they occured in-between our weather recording intervals... More about our weather records

Advertising

Kumanovo Weather History for the Previous 24 Hours

Scroll right to see more
 ConditionsComfort  
Time TempWeatherWind HumidityBarometerVisibility
1:00 PM
Tue, Jul 26
73 °FScattered clouds.9 mph78%30.01 "HgN/A
12:30 PM72 °FBroken clouds.6 mph83%30.01 "HgN/A
12:00 PM70 °FCloudy.5 mph88%30.01 "HgN/A
11:30 AM68 °FDrizzle. Cloudy.No wind94%30.04 "HgN/A
11:00 AM68 °FLight rain. Cloudy.No wind94%30.04 "HgN/A
10:30 AM66 °FDrizzle. Cloudy.No wind100%30.04 "Hg3 mi
10:00 AM66 °FRain. Cloudy.No wind100%30.04 "Hg3 mi
9:30 AM66 °FRain. Cloudy.No wind94%30.04 "Hg2 mi
9:00 AM66 °FLight rain. Mostly cloudy.2 mph94%30.04 "HgN/A
8:30 AM68 °FLight rain. Cloudy.2 mph88%30.04 "HgN/A
8:00 AM66 °FHeavy rain. Mostly cloudy.3 mph94%30.01 "Hg4 mi
7:30 AM68 °FLight rain. More clouds than sun.6 mph88%30.01 "HgN/A
7:00 AM68 °FMore clouds than sun.5 mph88%30.01 "HgN/A
6:30 AM68 °FMore clouds than sun.No wind88%30.01 "HgN/A
5:00 AM68 °FMostly cloudy.2 mph94%29.98 "HgN/A
4:00 AM68 °FMostly cloudy.2 mph94%29.98 "HgN/A
3:30 AM68 °FMostly cloudy.2 mph94%29.98 "HgN/A
3:00 AM68 °FMostly cloudy.2 mph94%29.98 "HgN/A
2:30 AM68 °FMostly cloudy.2 mph94%29.98 "HgN/A
2:00 AM68 °FMostly cloudy.2 mph94%29.98 "HgN/A
1:30 AM68 °FMostly cloudy.5 mph88%29.98 "HgN/A
1:00 AM68 °FMostly cloudy.5 mph88%29.98 "HgN/A
12:30 AM68 °FMostly cloudy.No wind88%29.98 "HgN/A
12:00 AM68 °FLight rain. Mostly cloudy.No wind88%29.98 "HgN/A
11:30 PM
Mon, Jul 25
70 °FPartly cloudy.No wind83%29.98 "HgN/A
11:00 PM70 °FPartly cloudy.No wind83%29.98 "HgN/A
10:30 PM68 °FPartly cloudy.No wind88%29.95 "HgN/A
10:00 PM68 °FPartly cloudy.No wind88%29.95 "HgN/A
9:30 PM70 °FPartly cloudy.6 mph83%29.95 "HgN/A
9:00 PM70 °FPartly cloudy.6 mph83%29.95 "HgN/A
8:30 PM72 °FBroken clouds.3 mph83%29.95 "HgN/A
8:00 PM72 °FBroken clouds.2 mph83%29.92 "HgN/A
7:30 PM72 °FScattered clouds.No wind83%29.95 "HgN/A
7:00 PM72 °FLight rain. Partly sunny.3 mph83%29.95 "HgN/A
6:30 PM73 °FDrizzle. Partly sunny.5 mph74%29.95 "HgN/A
6:00 PM75 °FLight rain. Partly sunny.15 mph74%29.98 "HgN/A
5:30 PM79 °FDrizzle. Partly sunny.7 mph61%29.95 "HgN/A
5:00 PM79 °FBroken clouds.6 mph61%29.92 "HgN/A
4:30 PM79 °FLight rain. Broken clouds.6 mph54%29.92 "HgN/A
4:00 PM81 °FPartly sunny.23 mph54%29.92 "HgN/A
3:30 PM86 °FScattered clouds.8 mph46%29.89 "HgN/A
3:00 PM88 °FScattered clouds.8 mph40%29.89 "HgN/A
2:30 PM88 °FScattered clouds.6 mph43%29.89 "HgN/A
2:00 PM88 °FScattered clouds.5 mph43%29.89 "HgN/A
Weather by CustomWeather, © 2016

See weather overviewHow to use our weather pages